Wind_Speed
9 9 8 8 10 14 16 17 17 19 22 23 25 30 34 37 40 43 46 48 47 40 28 11 2 6 9 14 17 18 18 20 22 22 23 31 19 17 11 2 9 12 5 7 18 17 14 8 6 14 12 13 11 16
9 7 8 11 14 15 19 18 19 21 23 27 31 34 37 40 42 45 47 45 32 16 5 3 6 7 10 10 15 14 14 13 13 19 21 25 18 14 6 7 11 10 12 15 13 17 19 18 19 16 19 18 11 13
8 8 10 12 15 19 20 18 21 24 28 31 34 37 40 43 46 48 40 27 8 4 6 4 6 7 8 15 21 21 16 13 15 15 18 21 21 14 12 10 10 8 11 8 10 11 18 20 19 16 10 10 3 13
7 9 10 13 17 17 17 20 24 28 31 34 37 41 44 46 47 42 29 9 8 8 8 7 4 12 15 18 19 26 26 24 23 15 15 14 20 20 21 18 10 10 7 5 4 12 14 18 18 25 14 10 7 19
8 10 12 16 18 18 20 24 29 31 34 38 41 44 45 44 41 31 12 14 9 11 12 12 14 11 13 21 20 23 23 27 38 21 11 13 17 16 15 18 23 14 9 10 8 14 12 16 30 26 22 25 32 28
10 12 16 19 18 19 23 29 31 34 37 41 45 46 43 39 28 8 11 12 9 11 12 9 8 7 17 18 23 26 24 21 33 25 9 13 13 12 12 13 17 13 13 14 18 16 16 22 11 20 23 24 26 18
13 17 18 16 18 23 28 30 33 37 41 45 45 43 38 23 4 11 12 11 12 14 11 7 8 8 14 18 19 24 26 25 28 29 27 18 18 14 14 16 17 13 12 16 16 16 13 7 9 15 12 17 19 16
18 16 13 16 21 26 28 31 35 40 44 45 42 37 19 2 10 9 7 8 13 12 8 4 3 3 12 17 18 24 25 22 24 30 33 34 39 46 34 25 22 16 13 17 14 14 16 17 19 22 10 12 16 15
10 9 14 19 23 26 29 33 39 43 44 42 36 18 7 14 8 5 9 10 9 10 8 2 1 1 5 12 15 20 23 20 23 25 30 32 40 40 39 41 29 23 19 17 12 8 11 12 18 19 19 19 20 20
7 13 17 21 24 27 31 37 41 42 41 35 16 6 15 9 7 4 8 9 9 9 8 5 5 2 2 4 9 14 16 21 18 20 26 27 32 30 31 33 34 34 35 37 34 29 29 30 31 29 27 27 20 20
12 16 19 21 25 28 34 38 39 40 36 17 8 14 11 6 4 4 5 7 8 5 7 6 3 1 4 6 7 9 11 10 16 16 18 19 22 24 26 28 29 28 28 28 27 26 24 23 22 23 23 21 19 16
15 17 18 21 25 31 34 36 37 35 16 8 13 10 5 4 5 5 4 3 4 4 4 3 2 3 5 7 5 8 11 13 15 10 15 22 11 19 22 16 20 21 21 23 24 24 22 22 21 20 18 17 16 17
16 16 19 22 28 31 33 34 35 21 7 13 7 4 4 4 3 3 2 2 3 4 4 4 2 3 4 5 7 8 9 20 11 9 16 16 16 23 23 23 22 17 18 17 17 19 20 21 21 20 20 19 19 18
14 16 19 24 27 31 32 33 27 6 8 5 4 5 5 4 2 1 3 4 1 2 6 9 7 4 2 2 5 1 9 15 19 16 17 16 17 19 22 21 18 20 16 4 12 19 18 20 20 21 24 24 21 19
13 16 19 24 28 29 30 29 12 6 6 4 5 5 6 7 4 6 4 5 4 2 2 4 10 7 3 7 9 6 5 13 9 14 11 12 15 16 17 15 14 16 17 11 11 10 17 16 17 18 20 21 21 19
13 15 20 25 27 26 26 20 5 5 3 5 5 5 6 6 6 3 3 3 5 4 1 4 9 8 4 8 5 7 8 10 13 14 11 14 15 15 16 17 18 16 12 11 9 10 14 11 15 16 18 20 17 16
13 16 20 22 25 24 23 9 4 4 4 2 2 5 7 6 7 7 7 4 4 5 3 5 10 8 4 8 8 2 3 6 7 8 9 10 11 12 13 13 13 13 13 13 11 12 14 15 17 17 18 19 18 16
13 16 19 21 23 21 21 3 3 1 3 2 1 3 4 6 9 10 5 4 6 6 7 9 8 5 5 8 8 4 2 6 6 6 8 11 13 14 15 16 16 14 12 11 13 14 15 16 16 18 18 17 15 16
15 16 19 20 20 18 17 6 6 2 1 2 2 4 6 6 7 10 9 5 6 6 4 7 7 8 5 4 6 6 5 5 3 4 7 9 12 16 18 18 17 15 14 12 13 14 15 15 14 12 13 13 13 14
15 17 18 19 18 16 16 8 5 5 4 2 2 3 5 5 5 5 5 8 3 1 3 6 7 3 4 5 5 3 2 5 7 7 4 9 12 13 17 20 21 20 18 16 15 16 16 15 15 15 16 15 12 11
15 16 17 18 16 13 13 11 5 9 8 5 3 2 1 3 5 6 5 6 1 2 2 2 2 2 2 2 1 3 4 6 8 5 1 6 9 9 16 19 22 24 25 23 20 18 18 17 18 18 18 17 17 16
16 16 17 17 15 13 11 11 7 8 11 11 7 6 4 5 4 5 5 3 3 2 2 4 4 5 4 3 1 5 8 9 6 4 5 6 8 9 13 17 22 23 23 24 25 24 21 19 18 18 18 17 16 14
15 15 16 16 15 13 11 10 11 8 12 12 12 12 10 9 9 7 7 7 5 3 3 5 5 5 5 6 8 9 11 9 6 5 7 5 7 9 11 17 19 20 21 23 25 25 25 24 21 19 19 17 14 13
15 14 14 14 14 13 13 11 12 12 11 16 17 12 13 13 12 11 9 8 6 6 5 4 5 5 5 5 5 7 9 9 7 6 8 6 5 10 14 15 16 18 21 22 25 27 29 31 28 22 19 17 14 11
14 13 12 13 14 13 12 12 14 13 15 14 14 15 16 15 14 15 14 11 11 11 10 8 6 6 5 5 7 8 8 7 8 9 6 6 7 9 13 17 18 19 22 25 28 30 32 35 33 25 20 17 15 12
13 11 11 12 14 15 15 14 14 15 17 17 15 15 18 20 17 13 15 13 13 14 15 14 11 8 6 4 3 1 0 2 2 3 8 11 10 11 14 18 20 22 23 25 30 31 35 34 29 25 19 17 15 14
13 11 10 11 14 16 16 16 16 16 18 15 11 10 14 13 17 22 15 15 18 16 15 17 14 13 12 9 7 5 8 9 10 10 11 13 15 16 16 19 21 22 23 27 30 32 35 30 24 26 22 16 15 15
12 11 12 13 13 15 16 16 15 16 18 15 12 14 16 16 14 15 19 21 26 24 21 18 15 16 17 16 17 16 15 17 20 22 21 19 20 23 23 24 25 27 29 31 33 32 35 29 23 23 21 18 16 16
12 12 12 13 13 15 16 16 15 14 16 17 16 14 12 14 16 17 19 20 21 18 17 20 22 22 21 23 25 26 26 25 26 28 28 27 27 28 28 29 30 32 35 34 33 35 33 27 23 21 19 19 17 16
13 13 13 13 13 14 15 16 14 13 11 13 15 15 13 12 12 12 10 11 9 7 9 10 11 15 18 23 26 28 30 31 32 32 30 30 29 29 30 31 32 34 35 34 33 32 27 23 23 21 19 18 18 18
13 13 14 13 14 14 15 16 15 12 11 9 10 12 14 15 13 10 6 7 10 9 8 9 10 12 16 19 20 22 23 25 26 27 28 29 30 30 31 31 31 31 31 33 32 27 23 22 23 21 20 19 19 20
12 13 15 15 14 15 16 17 13 9 7 7 9 12 14 14 11 9 8 6 5 6 8 10 11 11 12 14 17 18 19 20 21 21 22 22 22 23 24 25 25 28 30 28 26 26 24 22 21 21 21 21 21 21
10 12 12 14 15 15 13 10 10 8 7 9 13 16 17 19 19 9 8 8 9 10 11 12 11 13 20 20 19 19 20 20 20 19 20 21 21 22 23 25 26 24 23 22 22 23 24 23 21 21 22 22 22 23
Wind_Direction
271 277 276 273 295 312 315 311 312 313 318 319 319 322 323 323 323 321 319 321 322 321 320 303 270 355 342 327 324 323 314 302 310 336 345 352 346 354 10 183 334 337 347 330 16 30 6 359 329 323 305 317 229 227
276 278 290 280 297 314 318 314 317 321 320 321 324 325 322 323 321 320 322 324 323 312 345 68 359 3 335 355 356 351 341 330 341 344 353 2 1 15 7 339 344 343 12 16 25 24 16 355 348 318 318 328 222 190
291 297 294 301 301 310 315 318 321 321 325 324 323 323 322 320 321 323 326 324 300 210 101 33 66 30 14 12 22 10 3 350 335 359 9 13 16 27 21 7 359 319 336 20 354 345 2 357 6 350 347 349 66 180
304 298 308 320 321 316 317 323 325 325 324 323 323 322 321 322 325 325 327 290 173 145 102 103 110 59 55 39 43 39 35 28 9 353 12 4 20 30 35 28 356 2 338 72 347 33 22 6 36 73 26 30 73 77
309 301 311 316 317 317 322 326 326 324 324 324 322 322 325 326 327 325 309 165 151 145 122 130 103 80 45 35 41 27 14 11 16 21 30 29 29 30 22 24 19 24 52 140 115 76 40 17 57 62 66 62 77 76
301 305 308 312 313 317 322 324 324 324 325 323 324 326 328 326 326 309 159 167 150 134 137 144 96 44 32 34 39 36 28 17 14 31 51 33 34 18 19 12 14 40 75 112 86 77 64 65 49 3 40 33 65 76
301 312 311 314 315 321 323 324 325 327 326 325 328 329 328 328 305 137 141 160 142 138 129 102 88 60 31 42 48 47 41 41 31 37 47 40 25 15 25 35 66 80 97 86 72 79 99 68 33 8 29 37 74 81
307 305 304 314 323 322 324 327 329 327 328 329 331 329 333 100 132 128 148 152 144 149 153 112 106 64 46 54 68 52 38 38 51 59 61 62 59 57 53 65 78 92 77 63 57 76 65 61 55 38 58 95 105 98
303 310 319 324 324 326 330 331 331 331 329 332 331 338 122 121 107 102 134 139 148 173 182 166 172 247 76 59 44 37 33 37 45 69 64 62 61 57 55 67 68 62 61 64 69 42 33 29 25 53 81 90 85 64
326 324 326 329 330 332 334 334 332 331 333 336 344 105 130 119 77 103 124 124 142 157 155 121 109 85 10 53 25 31 47 37 60 67 62 59 62 60 64 68 69 68 66 62 63 63 67 75 65 69 68 70 65 70
326 328 330 334 335 336 337 335 335 337 341 356 90 129 119 77 75 102 124 118 147 151 160 142 144 20 345 357 13 35 17 15 53 57 43 54 65 62 63 66 62 62 62 63 65 65 66 66 67 70 70 69 65 59
330 330 337 337 339 340 337 339 339 342 1 64 115 109 90 81 109 134 140 134 167 154 128 147 95 7 344 344 61 43 63 40 72 80 49 53 40 47 33 31 54 53 54 59 58 55 54 54 54 54 52 49 43 40
330 336 340 342 342 340 342 343 342 351 81 117 97 79 81 87 86 133 153 147 158 179 212 246 270 311 348 73 83 60 57 49 65 42 46 29 37 39 43 53 38 28 24 36 49 48 47 46 43 41 38 35 33 32
333 341 347 343 342 346 346 345 344 31 124 119 78 55 38 28 39 138 123 104 123 245 251 236 228 228 324 75 117 79 17 47 44 46 49 38 43 45 39 39 33 21 10 354 38 41 31 32 32 31 30 28 26 23
338 348 345 346 349 349 350 348 359 111 123 93 70 67 50 46 74 130 147 4 13 19 11 203 206 212 185 132 100 86 81 44 13 28 39 30 35 29 30 28 28 33 40 46 24 9 17 18 10 12 12 14 18 19
344 345 349 351 351 354 353 355 82 103 125 90 73 56 37 43 37 39 37 6 357 1 326 163 178 182 160 175 137 101 67 38 32 39 43 47 44 27 24 21 22 22 16 9 12 355 353 350 354 354 354 356 4 13
342 348 350 351 355 356 358 12 117 121 99 67 169 30 40 35 38 28 17 15 40 27 64 142 171 175 148 173 186 160 62 58 55 43 40 28 28 21 5 6 4 360 359 359 348 338 332 337 337 338 341 346 352 4
340 346 348 354 355 355 5 20 162 118 57 40 356 344 34 33 27 15 13 77 73 65 77 90 114 161 174 189 207 199 126 90 68 33 13 2 4 11 6 2 356 347 339 328 320 318 321 327 335 333 339 348 351 351
337 341 349 355 354 355 8 3 214 195 10 42 59 31 7 357 11 34 66 92 94 104 84 97 112 111 115 155 201 202 128 99 49 350 344 353 16 16 8 10 4 352 340 333 332 329 328 335 340 338 339 347 340 336
335 342 348 352 351 353 2 356 244 218 257 324 308 351 30 52 40 47 13 32 79 66 112 130 126 122 120 117 102 101 67 12 340 336 8 20 16 19 27 27 15 4 356 344 339 340 338 334 333 335 337 335 339 327
333 340 345 347 345 347 355 356 296 236 246 279 288 256 281 358 22 25 33 42 5 140 123 90 56 3 327 324 324 262 260 274 324 311 49 353 359 13 15 17 13 11 12 9 357 345 340 335 330 328 332 334 339 334
334 337 342 342 341 338 344 353 332 266 249 255 272 268 273 278 302 336 336 307 287 289 313 305 303 302 306 311 295 265 278 288 285 252 313 331 344 350 359 2 359 1 4 3 4 2 350 337 331 327 329 333 329 329
330 334 336 339 338 334 336 337 342 296 260 263 262 259 253 260 274 287 309 304 273 255 286 322 327 318 298 272 260 253 258 261 237 282 307 322 332 339 348 349 350 356 2 5 5 0 357 351 339 331 327 330 328 320
326 331 335 341 340 336 331 328 330 327 305 262 258 260 250 250 256 265 275 282 268 260 268 308 327 304 304 303 303 275 276 266 249 274 299 316 334 343 348 351 356 356 353 350 349 350 352 352 346 335 328 323 322 310
320 325 335 343 344 340 335 326 324 322 311 291 261 246 240 245 257 272 262 264 263 263 264 274 300 320 327 316 282 283 294 299 260 265 274 307 336 348 348 351 352 345 339 342 344 343 343 341 340 332 322 319 315 303
313 319 328 339 346 343 340 339 334 329 320 306 279 272 259 244 242 260 264 258 256 258 260 256 259 273 284 326 328 295 26 103 164 244 281 298 312 330 336 336 338 341 337 336 338 338 340 338 334 330 317 310 312 303
310 310 315 330 338 342 342 345 345 345 338 322 276 252 272 277 251 243 236 230 249 240 255 241 240 252 264 269 267 263 270 264 266 265 271 285 295 307 312 317 320 328 330 327 333 331 335 336 330 332 323 313 310 302
302 303 304 313 323 339 343 346 350 354 352 340 309 278 274 279 272 263 260 264 261 256 264 250 255 257 260 271 274 274 272 269 270 276 281 285 289 293 298 300 307 312 318 319 323 326 329 326 320 324 324 318 313 309
301 302 304 303 311 324 338 341 342 345 354 356 342 323 296 270 269 277 272 266 270 290 284 272 267 268 273 270 274 279 281 281 282 282 284 287 288 291 295 299 304 307 310 316 321 323 324 322 317 314 314 315 312 311
300 305 310 306 304 312 322 337 336 340 343 356 2 356 341 318 301 293 275 250 254 269 268 272 277 277 278 277 277 278 280 280 279 281 283 284 287 290 293 298 302 305 308 314 317 321 319 322 325 321 310 309 309 308
294 301 309 308 303 309 316 325 330 332 344 348 355 2 5 7 6 355 326 275 255 249 276 287 285 285 291 294 291 286 283 282 283 284 283 283 284 285 289 293 297 302 307 310 313 314 316 319 320 319 314 308 308 307
293 294 303 302 304 309 312 317 316 315 334 352 359 360 359 355 349 354 1 357 341 320 320 317 310 313 312 308 307 307 304 300 298 297 296 294 294 295 296 298 301 303 305 307 310 310 313 316 316 314 309 306 305 305
294 300 302 304 307 309 314 320 320 313 321 328 338 337 332 335 342 320 307 302 308 306 301 299 291 322 324 310 306 306 307 307 307 307 304 302 301 301 301 301 301 302 306 310 312 312 315 317 315 312 311 309 306 305
Height
5782 5782 5782 5781 5781 5779 5778 5775 5773 5771 5768 5764 5760 5756 5752 5747 5742 5736 5728 5721 5714 5706 5700 5697 5696 5695 5693 5689 5685 5681 5677 5673 5668 5664 5657 5648 5640 5633 5629 5628 5628 5626 5624 5621 5618 5614 5611 5607 5605 5601 5598 5595 5591 5595
5780 5779 5779 5779 5778 5776 5774 5772 5769 5766 5762 5759 5755 5750 5744 5738 5733 5725 5717 5710 5703 5699 5697 5695 5695 5694 5691 5688 5682 5676 5672 5668 5665 5661 5655 5647 5639 5634 5632 5630 5628 5627 5624 5622 5620 5617 5612 5608 5604 5601 5598 5594 5592 5588
5778 5777 5777 5776 5775 5773 5770 5768 5765 5762 5757 5753 5747 5742 5735 5728 5721 5714 5707 5700 5697 5696 5696 5696 5695 5694 5690 5687 5682 5677 5671 5668 5664 5659 5654 5648 5642 5637 5632 5630 5627 5626 5624 5622 5620 5618 5615 5611 5606 5600 5597 5595 5595 5597
5776 5776 5775 5773 5771 5769 5767 5764 5761 5756 5751 5745 5739 5732 5725 5717 5710 5703 5698 5695 5695 5695 5696 5697 5696 5694 5692 5688 5684 5679 5674 5669 5662 5656 5652 5649 5645 5639 5634 5630 5627 5623 5622 5623 5620 5620 5617 5613 5608 5604 5603 5603 5599 5600
5774 5773 5772 5771 5769 5766 5763 5759 5755 5750 5744 5737 5730 5722 5714 5706 5700 5695 5691 5692 5694 5696 5697 5698 5696 5696 5693 5689 5685 5680 5675 5669 5662 5654 5651 5651 5646 5642 5637 5632 5627 5624 5622 5622 5622 5622 5620 5616 5613 5610 5610 5609 5607 5608
5772 5772 5770 5767 5765 5762 5759 5754 5749 5743 5736 5729 5720 5712 5705 5697 5691 5689 5689 5691 5694 5696 5697 5698 5698 5696 5694 5691 5686 5682 5677 5672 5666 5657 5653 5652 5649 5644 5637 5632 5630 5627 5626 5626 5627 5625 5624 5622 5618 5616 5617 5615 5615 5615
5770 5769 5766 5764 5762 5758 5754 5749 5743 5736 5728 5720 5711 5704 5696 5691 5688 5689 5691 5693 5695 5697 5699 5699 5699 5698 5696 5693 5689 5686 5681 5677 5672 5663 5657 5656 5651 5646 5639 5635 5633 5632 5632 5630 5630 5629 5630 5627 5625 5622 5621 5621 5620 5621
5767 5765 5763 5761 5759 5754 5749 5743 5737 5729 5721 5712 5704 5697 5691 5689 5690 5692 5693 5694 5696 5698 5699 5700 5701 5701 5699 5695 5693 5691 5686 5682 5678 5673 5669 5664 5659 5650 5646 5643 5641 5640 5639 5638 5636 5635 5634 5633 5629 5626 5623 5624 5625 5625
5763 5762 5761 5758 5754 5749 5744 5738 5730 5722 5714 5705 5698 5692 5691 5693 5694 5694 5695 5696 5697 5700 5700 5701 5701 5701 5701 5698 5696 5693 5691 5688 5683 5679 5676 5672 5663 5660 5659 5656 5651 5649 5647 5644 5642 5639 5638 5636 5634 5631 5628 5628 5630 5630
5761 5760 5758 5754 5750 5745 5739 5732 5724 5716 5707 5699 5693 5693 5694 5696 5697 5697 5698 5699 5699 5700 5702 5702 5702 5702 5701 5700 5699 5697 5694 5692 5689 5686 5681 5677 5673 5672 5669 5664 5661 5659 5656 5653 5649 5647 5644 5645 5641 5639 5637 5635 5635 5635
5760 5758 5754 5751 5746 5741 5734 5727 5718 5710 5702 5697 5696 5697 5698 5699 5699 5700 5700 5701 5702 5703 5703 5704 5704 5703 5701 5700 5700 5699 5696 5694 5692 5689 5686 5683 5680 5678 5675 5672 5670 5667 5665 5662 5659 5657 5654 5651 5649 5648 5646 5644 5644 5642
5757 5754 5751 5748 5743 5737 5730 5722 5714 5706 5701 5701 5702 5702 5702 5702 5702 5702 5702 5703 5703 5704 5704 5705 5705 5703 5702 5701 5701 5701 5699 5696 5693 5691 5689 5686 5684 5681 5679 5677 5675 5673 5671 5669 5666 5664 5662 5659 5656 5653 5651 5649 5646 5643
5754 5752 5749 5745 5740 5733 5726 5719 5711 5706 5705 5705 5706 5705 5705 5705 5705 5704 5704 5704 5704 5704 5704 5704 5705 5704 5703 5703 5703 5702 5701 5700 5697 5693 5691 5690 5687 5685 5679 5680 5679 5677 5674 5672 5670 5668 5666 5663 5661 5658 5655 5652 5649 5646
5752 5749 5746 5742 5737 5730 5723 5717 5711 5707 5708 5709 5709 5708 5708 5706 5705 5705 5705 5704 5704 5703 5703 5703 5704 5704 5703 5705 5705 5704 5704 5702 5698 5696 5693 5692 5691 5688 5686 5682 5681 5679 5676 5675 5674 5671 5669 5666 5664 5661 5657 5654 5651 5648
5750 5748 5744 5739 5734 5728 5722 5716 5711 5710 5711 5711 5711 5710 5709 5708 5707 5706 5706 5705 5704 5702 5701 5700 5702 5704 5704 5706 5706 5705 5705 5703 5701 5698 5697 5695 5693 5690 5688 5687 5685 5682 5680 5679 5677 5676 5673 5670 5667 5664 5660 5657 5653 5649
5748 5746 5742 5737 5732 5726 5721 5716 5713 5713 5713 5713 5713 5712 5711 5710 5709 5707 5706 5705 5704 5702 5701 5700 5701 5703 5704 5706 5707 5706 5705 5704 5702 5699 5699 5697 5695 5692 5691 5689 5686 5683 5681 5680 5677 5676 5674 5672 5669 5665 5662 5659 5656 5652
5746 5743 5739 5735 5730 5725 5720 5716 5715 5715 5715 5715 5714 5713 5712 5711 5710 5708 5706 5704 5704 5703 5701 5700 5701 5703 5705 5706 5707 5707 5706 5705 5703 5702 5700 5699 5697 5694 5692 5689 5687 5684 5682 5680 5677 5674 5671 5669 5666 5664 5661 5658 5654 5652
5743 5740 5737 5733 5728 5724 5720 5717 5717 5716 5716 5715 5715 5715 5713 5712 5711 5709 5706 5705 5705 5704 5703 5702 5703 5704 5705 5706 5706 5706 5705 5704 5703 5702 5701 5699 5696 5694 5692 5689 5686 5683 5681 5678 5675 5673 5670 5667 5665 5661 5658 5656 5653 5651
5741 5738 5735 5731 5728 5724 5720 5718 5718 5717 5717 5716 5716 5715 5714 5713 5712 5710 5708 5707 5707 5706 5706 5706 5706 5705 5706 5705 5705 5705 5705 5704 5703 5702 5701 5698 5696 5694 5692 5689 5685 5681 5678 5676 5673 5671 5668 5666 5663 5660 5658 5656 5653 5650
5739 5736 5733 5730 5727 5724 5720 5718 5717 5717 5717 5717 5716 5715 5714 5713 5712 5711 5710 5710 5709 5708 5708 5707 5707 5707 5706 5706 5706 5706 5705 5704 5703 5702 5700 5697 5696 5695 5692 5689 5685 5681 5678 5675 5672 5669 5667 5664 5662 5659 5657 5655 5652 5650
5737 5735 5732 5729 5726 5723 5720 5718 5716 5716 5716 5716 5716 5715 5715 5714 5713 5712 5711 5710 5710 5709 5709 5708 5707 5707 5706 5705 5705 5705 5704 5704 5703 5701 5700 5698 5696 5694 5692 5689 5686 5682 5678 5674 5670 5667 5665 5662 5659 5657 5655 5652 5649 5647
5736 5733 5730 5727 5724 5722 5720 5717 5715 5714 5714 5714 5715 5714 5713 5713 5712 5712 5711 5710 5709 5709 5708 5708 5707 5706 5705 5704 5703 5703 5702 5702 5701 5700 5699 5697 5695 5694 5692 5690 5686 5683 5679 5675 5671 5667 5663 5660 5657 5655 5652 5650 5647 5644
5734 5731 5728 5726 5723 5720 5719 5716 5714 5712 5711 5711 5711 5712 5712 5711 5711 5710 5710 5709 5708 5707 5707 5706 5705 5704 5703 5702 5701 5700 5699 5699 5699 5698 5697 5696 5695 5693 5692 5689 5685 5682 5678 5675 5671 5667 5663 5659 5655 5652 5649 5646 5644 5641
5731 5729 5726 5724 5721 5718 5716 5714 5712 5710 5708 5707 5707 5707 5708 5707 5708 5707 5708 5707 5707 5706 5706 5705 5704 5703 5701 5700 5699 5697 5697 5697 5697 5697 5696 5695 5694 5692 5690 5687 5684 5680 5677 5674 5670 5666 5661 5657 5653 5649 5645 5642 5640 5639
5730 5728 5725 5722 5719 5717 5714 5711 5708 5706 5704 5703 5702 5702 5703 5703 5704 5704 5704 5704 5704 5704 5703 5703 5702 5702 5700 5698 5697 5696 5695 5695 5695 5695 5694 5693 5692 5690 5688 5685 5682 5679 5675 5671 5667 5662 5658 5654 5650 5646 5642 5639 5637 5635
5727 5725 5723 5720 5718 5715 5712 5709 5706 5703 5700 5698 5697 5696 5696 5698 5699 5700 5700 5700 5700 5700 5699 5699 5699 5699 5698 5697 5696 5695 5694 5693 5693 5693 5692 5690 5689 5687 5684 5681 5678 5675 5672 5668 5664 5659 5655 5650 5645 5641 5638 5635 5633 5631
5724 5722 5720 5718 5716 5713 5710 5707 5703 5700 5697 5694 5693 5692 5692 5692 5693 5694 5694 5694 5693 5693 5693 5693 5694 5695 5695 5695 5694 5694 5693 5691 5690 5689 5688 5686 5684 5683 5681 5678 5675 5672 5668 5663 5659 5654 5650 5645 5641 5637 5633 5631 5629 5627
5721 5719 5717 5716 5714 5711 5708 5705 5702 5699 5696 5692 5690 5689 5689 5688 5688 5688 5688 5686 5687 5688 5688 5689 5690 5690 5691 5690 5689 5689 5689 5687 5686 5684 5683 5682 5680 5677 5676 5673 5670 5667 5663 5658 5653 5649 5644 5640 5636 5633 5629 5627 5625 5622
5718 5716 5715 5713 5711 5709 5706 5703 5701 5698 5695 5692 5688 5686 5684 5684 5684 5683 5682 5682 5682 5682 5681 5682 5683 5685 5685 5684 5683 5682 5681 5680 5679 5678 5677 5675 5673 5671 5668 5666 5663 5660 5656 5652 5648 5643 5638 5633 5631 5628 5625 5622 5621 5619
5714 5713 5712 5710 5708 5707 5704 5702 5699 5697 5694 5692 5689 5686 5683 5681 5679 5678 5677 5677 5679 5679 5679 5679 5679 5679 5678 5677 5676 5675 5673 5672 5671 5670 5668 5666 5665 5663 5660 5658 5656 5653 5649 5646 5642 5637 5632 5629 5626 5623 5620 5618 5615 5614
5711 5710 5708 5707 5705 5703 5701 5699 5697 5695 5693 5691 5689 5687 5684 5681 5678 5676 5675 5675 5676 5676 5676 5676 5676 5675 5674 5672 5670 5668 5666 5664 5662 5661 5659 5657 5655 5654 5652 5650 5648 5646 5642 5639 5634 5631 5627 5624 5620 5618 5616 5613 5611 5608
5707 5706 5705 5703 5702 5700 5698 5696 5694 5693 5691 5690 5688 5686 5684 5682 5680 5678 5677 5675 5675 5675 5674 5673 5672 5671 5669 5667 5664 5662 5659 5657 5655 5653 5650 5649 5647 5645 5643 5642 5641 5638 5635 5632 5628 5624 5621 5619 5616 5613 5610 5608 5606 5603
5703 5702 5701 5700 5698 5696 5695 5694 5692 5690 5690 5689 5687 5685 5683 5680 5678 5677 5675 5674 5673 5673 5672 5670 5669 5667 5665 5662 5659 5657 5654 5652 5650 5648 5645 5643 5640 5638 5637 5635 5633 5631 5628 5625 5622 5618 5615 5613 5611 5608 5605 5602 5600 5597